FENGYUN 1C DEB, 41011

Orbit data source: Space-Track

FENGYUN 1C DEB, 41011 is space debris in SSO originally from a launch on Mon, 10 May 1999 UTC launched from the Taiyaun Space Center, China (TSC). Fengyun 1C debris stems from the Chinese weather satellite Fengyun-1C, which was intentionally destroyed by a Chinese anti-satellite missile in 2007. This event dramatically increased the amount of space debris, with thousands of trackable fragments posing hazards to satellites and human spaceflight. The Fengyun 1C debris cloud has become a focal point in discussions about space sustainability and the need for international regulations to prevent the creation of new debris.

Loading next visibility...
Identifier
41011, 1999-025EXR
Orbit
SSO
Country
Flag of CNCN / PRC
Related business
Manufacturer
Unknown
Mission
Spacecraft
Bus & Motor
Unknown
Mass
Unknown
Launch date (UTC)
1999-05-10 (27 years ago)
Launch vehicle
Unknown
Launch site
Taiyaun Space Center, China (TSC)
Object type
Payload
Rocket body
Debris
Shape & HBR
Unknown shape, 0.1 m
Radar Cross Section
Small (<0.1 m²)

Expand to show TLE details & history
Last TLE update: 3 days ago

TLE from 3 days ago
0 FENGYUN 1C DEB
1 41011U 99025EXR 26255.48273547  .00001235  00000-0  21470-3 0  9990
2 41011  99.1349 326.4523 0303497 267.3387  89.3033 14.44576202611077
Epoch: 2026-09-12T11:35Z
TLE epoch observation values (Epoch: 2026-09-12T11:35:08.344Z)
Latitude
0.00002°
Longitude
161.17643°
Altitude
750.286 km
Speed
7.477 km/s
True Right ascension
21h 45m 48s
True Declination
0° 00' 00"
Sunlit
Object was in full shadow at epoch
Visualization orbit readout
Latitude
Unknown
Longitude
Unknown
Altitude
Unknown
Speed
Unknown
Apparent Right ascension
Unknown
Apparent Declination
Unknown
Sunlit
N/A
Visualization observer readout
Local Sidereal Time
03:44:28
Azimuth
Unknown
Elevation
Unknown
Doppler factor
Unknown
Orbital elements
Apogee altitude
956.612 km
Perigee altitude
524.511 km
Semi-major axis
7,118.699 km
Eccentricity
0.03035
Inclination
99.1349°
RAAN
326.4523°
Arg. of periapsis
267.3387°
True anomaly
92.78033°
Mean anomaly
89.3033°
Eccentric anomaly
91.04192°
Mean motion
3.61362 °/min
Orbital period
99.62 mins
BSTAR
0.0002147
Loading maneuver chart data...
Computing Atmospheric mass density...

Documentation

Showing up to 5 results
|